This demonstration page uses our WeatherBlox Daily Observations layout. Learn more.

Left ArrowRight Arrow

53.62937, 11.41316

Hourly Observations for May 3, 2021

Temp ( °F °C ) Dew Point ( °F °C ) Humidity (%) Winds ( mph kmh ) Pressure ( in mb ) Visibility ( mi km ) Precip ( " mm )
5:50 am 05:50 Mostly Cloudy 41 5 37 3 87 87 SW 12 19 30.00 1016 30 48 N/A
6:20 am 06:20 Mostly Cloudy 41 5 37 3 87 87 SW 9 15 30.00 1016 30 48 N/A
6:50 am 06:50 Mostly Cloudy 41 5 37 3 87 87 SW 9 15 30.00 1016 30 48 N/A
7:20 am 07:20 Mostly Sunny 41 5 37 3 87 87 SW 12 19 30.00 1016 7 11 N/A
7:50 am 07:50 Mostly Sunny 41 5 37 3 87 87 SW 13 20 30.00 1016 7 11 N/A
8:20 am 08:20 Mostly Sunny 43 6 37 3 81 81 SW 10 17 30.03 1017 7 11 N/A
8:50 am 08:50 Mostly Sunny 45 7 37 3 76 76 SW 10 17 30.03 1017 7 11 N/A
9:20 am 09:20 Partly Cloudy 45 7 37 3 76 76 SW 13 20 30.03 1017 30 48 N/A
9:50 am 09:50 Mostly Cloudy 46 8 37 3 71 71 WSW 12 19 30.03 1017 30 48 N/A
10:20 am 10:20 Mostly Cloudy 46 8 36 2 66 66 SW 13 20 30.03 1017 30 48 N/A
10:50 am 10:50 Mostly Cloudy 48 9 36 2 62 62 SW 12 19 30.03 1017 30 48 N/A
11:20 am 11:20 Mostly Cloudy 48 9 36 2 62 62 WSW 12 19 30.03 1017 30 48 N/A
11:50 am 11:50 Mostly Cloudy 46 8 36 2 66 66 SW 16 26 30.03 1017 30 48 N/A
12:20 pm 12:20 Mostly Cloudy with Drizzle 45 7 37 3 76 76 SW 14 22 30.03 1017 30 48 N/A
12:50 pm 12:50 Mostly Cloudy 45 7 39 4 81 81 WSW 6 9 30.03 1017 30 48 N/A
1:20 pm 13:20 Mostly Cloudy 50 10 39 4 67 67 SW 12 19 30.00 1016 30 48 N/A
1:50 pm 13:50 Mostly Cloudy 48 9 37 3 66 66 SSW 15 24 30.00 1016 30 48 N/A
2:20 pm 14:20 Partly Cloudy 48 9 37 3 66 66 SW 13 20 30.00 1016 30 48 N/A
2:50 pm 14:50 Partly Cloudy 52 11 39 4 62 62 SSW 14 22 30.00 1016 30 48 N/A
3:20 pm 15:20 Partly Cloudy 50 10 37 3 62 62 SSW 15 24 30.00 1016 30 48 N/A
3:50 pm 15:50 Mostly Sunny 52 11 37 3 58 58 SW 15 24 29.97 1015 30 48 N/A
4:20 pm 16:20 Mostly Sunny 50 10 37 3 62 62 SW 14 22 29.97 1015 30 48 N/A
4:50 pm 16:50 Mostly Sunny 50 10 37 3 62 62 SW 14 22 29.97 1015 30 48 N/A
5:20 pm 17:20 Mostly Sunny 52 11 37 3 58 58 SSW 12 19 29.97 1015 30 48 N/A
5:50 pm 17:50 Partly Cloudy 52 11 37 3 58 58 SSW 10 17 29.94 1014 30 48 N/A
6:20 pm 18:20 Mostly Sunny 50 10 37 3 62 62 S 10 17 29.94 1014 30 48 N/A
6:50 pm 18:50 Mostly Sunny 50 10 37 3 62 62 SSW 10 17 29.94 1014 30 48 N/A
7:20 pm 19:20 Mostly Sunny 50 10 37 3 62 62 SSW 10 17 29.94 1014 30 48 N/A
7:50 pm 19:50 Partly Cloudy with Light Rain 45 7 41 5 87 87 SSW 17 28 29.95 1014 4 7 N/A
8:20 pm 20:20 Mostly Sunny 45 7 41 5 87 87 S 8 13 29.92 1013 30 48 N/A
8:50 pm 20:50 Mostly Sunny 45 7 39 4 81 81 S 6 9 29.92 1013 30 48 N/A
9:20 pm 21:20 Mostly Clear 43 6 39 4 87 87 SE 3 6 29.92 1013 30 48 N/A
9:50 pm 21:50 Mostly Clear 43 6 39 4 87 87 ESE 5 7 29.92 1013 7 11 N/A

Powered by AerisWeather